TimeCST,TemperatureF,Dew PointF,Humidity,Sea Level PressureIn,VisibilityMPH,Wind Direction,Wind SpeedMPH,Gust SpeedMPH,PrecipitationIn,Events,Conditions,WindDirDegrees,DateUTC
12:15 AM,1.9,-2.4,82,30.57,10.0,Calm,Calm,-,N/A,,Overcast,0,2013-12-08 06:15:00
12:35 AM,2.7,-2.0,81,30.56,10.0,Calm,Calm,-,N/A,,Overcast,0,2013-12-08 06:35:00
12:55 AM,2.8,-2.0,80,30.56,10.0,Calm,Calm,-,N/A,,Overcast,0,2013-12-08 06:55:00
1:15 AM,3.4,-2.0,78,30.56,10.0,Calm,Calm,-,N/A,,Overcast,0,2013-12-08 07:15:00
1:35 AM,4.3,-1.5,77,30.55,10.0,Calm,Calm,-,N/A,,Overcast,0,2013-12-08 07:35:00
1:55 AM,4.6,-0.8,78,30.54,10.0,Calm,Calm,-,N/A,,Overcast,0,2013-12-08 07:55:00
2:15 AM,5.0,-0.6,78,30.54,10.0,Calm,Calm,-,N/A,,Overcast,0,2013-12-08 08:15:00
2:35 AM,5.5,0.3,79,30.53,10.0,Calm,Calm,-,N/A,Snow,Light Snow,0,2013-12-08 08:35:00
2:55 AM,5.7,-0.4,76,30.52,7.0,Calm,Calm,-,N/A,,Overcast,0,2013-12-08 08:55:00
3:15 AM,6.3,0.3,77,30.51,4.0,Calm,Calm,-,N/A,Snow,Light Snow,0,2013-12-08 09:15:00
3:35 AM,6.8,1.9,80,30.50,4.0,Calm,Calm,-,N/A,Snow,Light Snow,0,2013-12-08 09:35:00
3:55 AM,6.8,2.7,83,30.49,2.5,ENE,3.5,-,N/A,Snow,Light Snow,60,2013-12-08 09:55:00
4:15 AM,6.8,3.0,84,30.48,2.5,ENE,3.5,-,N/A,Snow,Light Snow,60,2013-12-08 10:15:00
4:35 AM,7.2,3.2,84,30.47,3.0,East,3.5,-,N/A,Snow,Light Snow,80,2013-12-08 10:35:00
4:55 AM,7.2,3.2,84,30.46,4.0,Calm,Calm,-,N/A,Snow,Light Snow,0,2013-12-08 10:55:00
5:15 AM,7.7,3.9,85,30.47,3.0,East,3.5,-,N/A,Snow,Light Snow,90,2013-12-08 11:15:00
5:35 AM,7.7,3.6,83,30.45,2.5,ENE,4.6,-,N/A,Snow,Light Snow,70,2013-12-08 11:35:00
5:55 AM,7.7,3.7,84,30.45,2.5,ENE,4.6,-,N/A,Snow,Light Snow,60,2013-12-08 11:55:00
6:15 AM,7.7,3.7,84,30.45,2.5,East,3.5,-,N/A,Snow,Light Snow,80,2013-12-08 12:15:00
6:35 AM,7.5,3.2,82,30.44,3.0,East,5.8,-,N/A,Snow,Light Snow,80,2013-12-08 12:35:00
6:55 AM,7.5,3.2,82,30.43,5.0,East,6.9,-,N/A,,Clear,80,2013-12-08 12:55:00
7:15 AM,7.5,2.8,81,30.42,7.0,East,6.9,-,N/A,,Clear,90,2013-12-08 13:15:00
7:35 AM,7.3,2.7,81,30.41,5.0,East,9.2,-,N/A,Snow,Light Snow,90,2013-12-08 13:35:00
7:55 AM,7.5,2.8,81,30.40,2.5,East,8.1,-,N/A,Snow,Light Snow,90,2013-12-08 13:55:00
8:15 AM,7.5,3.0,82,30.39,3.0,East,10.4,-,N/A,Snow,Light Snow,90,2013-12-08 14:15:00
8:35 AM,7.7,2.8,81,30.39,3.0,East,10.4,-,N/A,,Haze,90,2013-12-08 14:35:00
8:55 AM,8.2,3.2,80,30.38,3.0,East,10.4,-,N/A,Snow,Light Snow,90,2013-12-08 14:55:00
9:15 AM,8.6,3.2,79,30.38,3.0,East,10.4,-,N/A,,Haze,90,2013-12-08 15:15:00
9:35 AM,9.1,3.4,77,30.37,4.0,East,10.4,-,N/A,,Haze,100,2013-12-08 15:35:00
9:55 AM,9.5,3.9,78,30.37,2.5,East,9.2,-,N/A,Snow,Light Snow,90,2013-12-08 15:55:00
10:15 AM,10.4,4.5,77,30.37,7.0,East,6.9,-,N/A,,Clear,100,2013-12-08 16:15:00
10:35 AM,11.3,4.5,74,30.35,10.0,East,9.2,-,N/A,,Clear,80,2013-12-08 16:35:00
10:55 AM,12.2,4.5,71,30.33,7.0,East,9.2,-,N/A,,Clear,100,2013-12-08 16:55:00
11:15 AM,11.8,5.2,75,30.31,2.5,East,10.4,-,N/A,Snow,Light Snow,100,2013-12-08 17:15:00
11:35 AM,11.7,5.0,75,30.30,7.0,East,9.2,-,N/A,,Clear,100,2013-12-08 17:35:00
11:55 AM,11.8,6.3,78,30.28,1.8,East,9.2,-,N/A,Snow,Light Snow,90,2013-12-08 17:55:00
12:15 PM,11.7,6.1,78,30.27,2.0,East,9.2,-,N/A,Snow,Light Snow,80,2013-12-08 18:15:00
12:35 PM,12.2,6.8,79,30.25,1.8,East,8.1,-,N/A,Snow,Light Snow,90,2013-12-08 18:35:00
12:55 PM,12.2,7.0,80,30.24,2.0,East,8.1,-,N/A,Snow,Light Snow,90,2013-12-08 18:55:00
1:15 PM,11.8,7.3,82,30.21,0.8,East,9.2,-,N/A,Snow,Light Snow,90,2013-12-08 19:15:00
1:35 PM,12.2,7.7,82,30.20,1.0,ENE,6.9,-,N/A,Snow,Light Snow,70,2013-12-08 19:35:00
1:55 PM,12.6,7.9,82,30.19,1.2,East,5.8,-,N/A,Snow,Light Snow,80,2013-12-08 19:55:00
2:15 PM,12.7,8.1,82,30.18,1.2,East,8.1,-,N/A,Snow,Light Snow,90,2013-12-08 20:15:00
2:35 PM,12.7,8.1,82,30.17,1.2,East,6.9,-,N/A,Snow,Light Snow,80,2013-12-08 20:35:00
2:55 PM,12.9,8.2,82,30.16,1.5,East,4.6,-,N/A,Snow,Light Snow,90,2013-12-08 20:55:00
3:15 PM,12.9,8.4,82,30.15,1.5,East,5.8,-,N/A,Snow,Light Snow,80,2013-12-08 21:15:00
3:35 PM,13.1,9.1,84,30.14,1.0,East,4.6,-,N/A,Snow,Light Snow,90,2013-12-08 21:35:00
3:55 PM,13.1,8.8,83,30.13,1.8,East,6.9,-,N/A,Snow,Light Snow,80,2013-12-08 21:55:00
4:15 PM,12.9,9.0,84,30.13,1.5,ENE,4.6,-,N/A,Snow,Light Snow,70,2013-12-08 22:15:00
4:35 PM,12.9,9.0,84,30.12,2.0,ENE,3.5,-,N/A,Snow,Light Snow,60,2013-12-08 22:35:00
4:55 PM,12.9,9.3,86,30.11,2.0,ENE,5.8,-,N/A,Snow,Light Snow,70,2013-12-08 22:55:00
5:15 PM,12.7,9.3,86,30.11,2.0,ENE,4.6,-,N/A,Snow,Light Snow,60,2013-12-08 23:15:00
5:35 PM,12.7,9.3,86,30.10,2.5,ENE,4.6,-,N/A,Snow,Light Snow,60,2013-12-08 23:35:00
5:55 PM,12.7,9.1,86,30.09,3.0,NE,3.5,-,N/A,Snow,Light Snow,50,2013-12-08 23:55:00
6:15 PM,12.7,8.4,83,30.08,5.0,ENE,5.8,-,N/A,Snow,Light Snow,70,2013-12-09 00:15:00
6:35 PM,12.4,8.1,83,30.09,5.0,NE,3.5,-,N/A,Snow,Light Snow,50,2013-12-09 00:35:00
6:55 PM,11.5,8.4,87,30.08,4.0,NNE,3.5,-,N/A,Snow,Light Snow,30,2013-12-09 00:55:00
7:15 PM,11.3,8.1,87,30.08,4.0,NE,3.5,-,N/A,Snow,Light Snow,40,2013-12-09 01:15:00
7:35 PM,10.9,7.7,87,30.07,4.0,NE,3.5,-,N/A,Snow,Light Snow,40,2013-12-09 01:35:00
7:55 PM,10.2,7.5,89,30.07,4.0,Calm,Calm,-,N/A,Snow,Light Snow,0,2013-12-09 01:55:00
8:15 PM,10.2,7.5,89,30.06,5.0,NNE,3.5,-,N/A,Snow,Light Snow,30,2013-12-09 02:15:00
8:35 PM,10.2,7.3,88,30.06,5.0,Calm,Calm,-,N/A,Snow,Light Snow,0,2013-12-09 02:35:00
8:55 PM,10.4,7.5,88,30.05,7.0,Calm,Calm,-,N/A,Snow,Light Snow,0,2013-12-09 02:55:00
9:15 PM,10.4,7.5,88,30.04,4.0,Calm,Calm,-,N/A,Snow,Light Snow,0,2013-12-09 03:15:00
9:35 PM,10.4,7.3,87,30.03,2.0,Calm,Calm,-,N/A,Snow,Light Snow,0,2013-12-09 03:35:00
9:55 PM,10.4,7.5,88,30.03,2.5,North,3.5,-,N/A,Snow,Light Snow,360,2013-12-09 03:55:00
10:15 PM,10.4,7.3,87,30.02,2.0,Calm,Calm,-,N/A,Snow,Light Snow,0,2013-12-09 04:15:00
10:35 PM,10.4,7.3,87,30.02,2.0,Calm,Calm,-,N/A,Snow,Light Snow,0,2013-12-09 04:35:00
10:55 PM,10.8,7.5,87,30.02,2.5,Calm,Calm,-,N/A,Snow,Light Snow,0,2013-12-09 04:55:00
11:15 PM,10.8,7.7,87,30.01,3.0,Calm,Calm,-,N/A,Snow,Light Snow,0,2013-12-09 05:15:00
11:35 PM,10.8,7.7,87,30.00,2.0,Calm,Calm,-,N/A,Snow,Light Snow,0,2013-12-09 05:35:00
11:55 PM,10.8,7.7,87,29.99,2.5,Calm,Calm,-,N/A,Snow,Light Snow,0,2013-12-09 05:55:00